When you browse on this site, cookies collect data to enhance your experience and personalize the content and advertising you see.
Visit our Privacy Policy to learn more. By continuing to use the site, you agree to this use of cookies and data.
  • In Deutschland
  • Länderverzeichnis
  • Für 7 Tage
  • Wassertemperatur
  • Satellitenkarten
  • Wetterkarte
  • Widgets
  • user-avatar
    Anmelden

    Stündliche Wetter Piúma

    Heute, 21 Februar, Donnerstag

    Zeit Temperatur Niederschläge Wind Luftdruck Luftfeuchtigkeit
    00:00 +28°C° 0.2 mm 2 m/S 756 mmHg 86%
    01:00 +28°C° 0.1 mm 2 m/S 756 mmHg 86%
    02:00 +28°C° 0.1 mm 2 m/S 756 mmHg 86%
    03:00 +27°C° 0.1 mm 2 m/S 756 mmHg 86%
    04:00 +27°C° 0 mm 1 m/S 757 mmHg 86%
    05:00 +27°C° 0 mm 1 m/S 757 mmHg 86%
    06:00 +27°C° 0 mm 1 m/S 757 mmHg 86%
    07:00 +28°C° 0 mm 1 m/S 758 mmHg 82%
    08:00 +30°C° 0 mm 1 m/S 758 mmHg 78%
    09:00 +31°C° 0 mm 1 m/S 759 mmHg 73%
    10:00 +32°C° 0.2 mm 1 m/S 759 mmHg 72%
    11:00 +32°C° 0.2 mm 1 m/S 758 mmHg 71%
    12:00 +34°C° 0.2 mm 2 m/S 758 mmHg 70%
    13:00 +34°C° 0.3 mm 2 m/S 758 mmHg 72%
    14:00 +34°C° 0.3 mm 2 m/S 758 mmHg 75%
    15:00 +32°C° 0.3 mm 2 m/S 757 mmHg 77%
    16:00 +31°C° 1.4 mm 2 m/S 758 mmHg 82%
    17:00 +30°C° 1.4 mm 2 m/S 758 mmHg 87%
    18:00 +29°C° 1.4 mm 2 m/S 758 mmHg 92%
    19:00 +28°C° 0.6 mm 1 m/S 758 mmHg 93%
    20:00 +28°C° 0.6 mm 1 m/S 759 mmHg 94%
    21:00 +27°C° 0.6 mm 1 m/S 759 mmHg 95%
    22:00 +27°C° 0 mm 1 m/S 759 mmHg 94%
    23:00 +27°C° 0 mm 1 m/S 759 mmHg 94%

    Morgen, 22 Februar, Freitag

    Zeit Temperatur Niederschläge Wind Luftdruck Luftfeuchtigkeit
    00:00 +27°C° 0 mm 1 m/S 759 mmHg 94%
    01:00 +27°C° 0 mm 1 m/S 759 mmHg 93%
    02:00 +26°C° 0 mm 1 m/S 759 mmHg 92%
    03:00 +26°C° 0 mm 1 m/S 758 mmHg 92%
    04:00 +26°C° 0 mm 1 m/S 759 mmHg 91%
    05:00 +25°C° 0 mm 1 m/S 759 mmHg 91%
    06:00 +25°C° 0 mm 1 m/S 759 mmHg 90%
    07:00 +28°C° 0 mm 1 m/S 759 mmHg 80%
    08:00 +30°C° 0 mm 1 m/S 760 mmHg 69%
    09:00 +33°C° 0 mm 1 m/S 760 mmHg 59%
    10:00 +35°C° 0 mm 2 m/S 760 mmHg 56%
    11:00 +36°C° 0 mm 3 m/S 760 mmHg 53%
    12:00 +37°C° 0 mm 4 m/S 759 mmHg 50%
    13:00 +36°C° 0 mm 4 m/S 759 mmHg 54%
    14:00 +36°C° 0 mm 5 m/S 758 mmHg 58%
    15:00 +35°C° 0 mm 5 m/S 757 mmHg 62%
    16:00 +34°C° 0 mm 5 m/S 757 mmHg 69%
    17:00 +32°C° 0 mm 4 m/S 757 mmHg 76%
    18:00 +30°C° 0 mm 4 m/S 757 mmHg 84%
    19:00 +29°C° 0.1 mm 3 m/S 758 mmHg 86%
    20:00 +28°C° 0.1 mm 3 m/S 758 mmHg 89%
    21:00 +28°C° 0.1 mm 3 m/S 759 mmHg 92%
    22:00 +27°C° 0 mm 3 m/S 759 mmHg 92%
    23:00 +27°C° 0 mm 3 m/S 759 mmHg 91%

    übermorgen, 23 Februar, Samstag

    Zeit Temperatur Niederschläge Wind Luftdruck Luftfeuchtigkeit
    00:00 +27°C° 0 mm 3 m/S 759 mmHg 91%
    01:00 +27°C° 0 mm 3 m/S 758 mmHg 91%
    02:00 +27°C° 0 mm 3 m/S 758 mmHg 90%
    03:00 +26°C° 0 mm 3 m/S 757 mmHg 90%
    04:00 +26°C° 0 mm 3 m/S 757 mmHg 90%
    05:00 +26°C° 0 mm 2 m/S 757 mmHg 89%
    06:00 +26°C° 0 mm 2 m/S 757 mmHg 89%
    07:00 +28°C° 0 mm 1 m/S 758 mmHg 79%
    08:00 +31°C° 0 mm 1 m/S 758 mmHg 70%
    09:00 +34°C° 0 mm 1 m/S 758 mmHg 60%
    10:00 +35°C° 0 mm 1 m/S 758 mmHg 55%
    11:00 +38°C° 0 mm 2 m/S 757 mmHg 50%
    12:00 +39°C° 0 mm 2 m/S 757 mmHg 45%
    13:00 +38°C° 0 mm 3 m/S 756 mmHg 47%
    14:00 +38°C° 0 mm 4 m/S 755 mmHg 49%
    15:00 +37°C° 0 mm 4 m/S 755 mmHg 51%
    16:00 +35°C° 0 mm 4 m/S 755 mmHg 61%
    17:00 +33°C° 0 mm 4 m/S 755 mmHg 71%
    18:00 +32°C° 0 mm 4 m/S 754 mmHg 81%
    19:00 +30°C° 0 mm 3 m/S 755 mmHg 84%
    20:00 +29°C° 0 mm 3 m/S 755 mmHg 87%
    21:00 +28°C° 0 mm 3 m/S 756 mmHg 90%
    22:00 +28°C° 0 mm 3 m/S 756 mmHg 88%
    23:00 +28°C° 0 mm 3 m/S 756 mmHg 86%

    24 Februar, Sonntag

    Zeit Temperatur Niederschläge Wind Luftdruck Luftfeuchtigkeit
    00:00 +28°C° 0 mm 3 m/S 756 mmHg 84%
    01:00 +28°C° 0 mm 3 m/S 755 mmHg 82%
    02:00 +27°C° 0 mm 3 m/S 755 mmHg 81%
    03:00 +27°C° 0 mm 3 m/S 755 mmHg 79%
    04:00 +27°C° 0 mm 3 m/S 755 mmHg 79%
    05:00 +27°C° 0 mm 3 m/S 755 mmHg 79%
    06:00 +27°C° 0 mm 2 m/S 755 mmHg 79%
    07:00 +30°C° 0 mm 2 m/S 755 mmHg 72%
    08:00 +32°C° 0 mm 2 m/S 755 mmHg 64%
    09:00 +35°C° 0 mm 1 m/S 756 mmHg 57%
    10:00 +37°C° 0 mm 2 m/S 755 mmHg 52%
    11:00 +39°C° 0 mm 2 m/S 755 mmHg 47%
    12:00 +40°C° 0 mm 2 m/S 755 mmHg 42%
    13:00 +40°C° 0 mm 3 m/S 754 mmHg 44%
    14:00 +40°C° 0 mm 4 m/S 753 mmHg 47%
    15:00 +40°C° 0 mm 4 m/S 752 mmHg 49%
    16:00 +37°C° 0 mm 4 m/S 752 mmHg 58%
    17:00 +35°C° 0 mm 4 m/S 753 mmHg 68%
    18:00 +33°C° 0 mm 4 m/S 753 mmHg 78%
    19:00 +31°C° 0 mm 3 m/S 753 mmHg 79%
    20:00 +30°C° 0 mm 3 m/S 754 mmHg 81%
    21:00 +30°C° 0 mm 3 m/S 754 mmHg 82%
    22:00 +29°C° 0 mm 3 m/S 754 mmHg 80%
    23:00 +29°C° 0 mm 3 m/S 754 mmHg 78%

    25 Februar, Montag

    Zeit Temperatur Niederschläge Wind Luftdruck Luftfeuchtigkeit
    00:00 +29°C° 0 mm 3 m/S 754 mmHg 76%
    01:00 +29°C° 0 mm 3 m/S 753 mmHg 75%
    02:00 +29°C° 0 mm 3 m/S 753 mmHg 74%
    03:00 +29°C° 0 mm 3 m/S 753 mmHg 74%
    04:00 +29°C° 0 mm 3 m/S 753 mmHg 75%
    05:00 +29°C° 0 mm 2 m/S 753 mmHg 76%
    06:00 +29°C° 0 mm 2 m/S 753 mmHg 76%
    07:00 +31°C° 0 mm 2 m/S 753 mmHg 70%
    08:00 +34°C° 0 mm 2 m/S 754 mmHg 64%
    09:00 +35°C° 0 mm 1 m/S 754 mmHg 58%
    10:00 +38°C° 0 mm 2 m/S 754 mmHg 52%
    11:00 +40°C° 0 mm 2 m/S 753 mmHg 47%
    12:00 +41°C° 0 mm 2 m/S 753 mmHg 41%
    13:00 +42°C° 0.1 mm 3 m/S 752 mmHg 43%
    14:00 +42°C° 0.1 mm 3 m/S 752 mmHg 44%
    15:00 +40°C° 0.1 mm 3 m/S 751 mmHg 45%
    16:00 +38°C° 0 mm 3 m/S 752 mmHg 54%
    17:00 +36°C° 0 mm 3 m/S 752 mmHg 63%
    18:00 +34°C° 0 mm 3 m/S 752 mmHg 71%
    19:00 +33°C° 0.2 mm 3 m/S 753 mmHg 73%
    20:00 +31°C° 0.2 mm 3 m/S 753 mmHg 74%
    21:00 +30°C° 0.2 mm 3 m/S 754 mmHg 76%
    22:00 +30°C° 0.1 mm 3 m/S 753 mmHg 76%
    23:00 +30°C° 0.1 mm 2 m/S 753 mmHg 76%

    26 Februar, Dienstag

    Zeit Temperatur Niederschläge Wind Luftdruck Luftfeuchtigkeit
    00:00 +30°C° 0.1 mm 2 m/S 753 mmHg 76%
    01:00 +30°C° 0 mm 2 m/S 753 mmHg 76%
    02:00 +29°C° 0 mm 2 m/S 753 mmHg 76%
    03:00 +29°C° 0 mm 1 m/S 753 mmHg 76%
    04:00 +29°C° 0 mm 1 m/S 753 mmHg 76%
    05:00 +29°C° 0 mm 1 m/S 754 mmHg 77%
    06:00 +29°C° 0 mm 1 m/S 754 mmHg 77%
    07:00 +31°C° 0 mm 1 m/S 754 mmHg 71%
    08:00 +31°C° 0 mm 0 m/S 754 mmHg 65%
    09:00 +33°C° 0 mm 0 m/S 755 mmHg 58%
    10:00 +36°C° 0 mm 1 m/S 754 mmHg 55%
    11:00 +38°C° 0 mm 2 m/S 754 mmHg 52%
    12:00 +39°C° 0 mm 2 m/S 754 mmHg 49%
    13:00 +38°C° 0.1 mm 3 m/S 753 mmHg 52%
    14:00 +38°C° 0.1 mm 3 m/S 753 mmHg 55%
    15:00 +37°C° 0.1 mm 4 m/S 752 mmHg 58%
    16:00 +35°C° 1.2 mm 3 m/S 753 mmHg 67%
    17:00 +32°C° 1.2 mm 2 m/S 753 mmHg 77%
    18:00 +30°C° 1.2 mm 1 m/S 753 mmHg 86%
    19:00 +30°C° 0.3 mm 1 m/S 754 mmHg 86%
    20:00 +30°C° 0.3 mm 1 m/S 755 mmHg 86%
    21:00 +27°C° 0.3 mm 0 m/S 755 mmHg 86%
    22:00 +29°C° 0.4 mm 1 m/S 755 mmHg 88%
    23:00 +29°C° 0.4 mm 2 m/S 755 mmHg 90%
    Mehr zeigen